sat.trackr.live / text

‹ back to catalog

STARLINK-36738

NORAD 67865 · 2026-034R

PAYLOAD ACTIVE UNKNOWN

§ Identity

Operator
Country
US
Launch date
2026-02-20
Launch site
AFETR
Launch vehicle
Mass (kg)
RCS (m²)

Purposes: comms

External: N2YO · Heavens-Above · Gunter

§ Orbital elements

Epoch: 2026-09-19T19:50:11.776416Z

Period
93.85 min
Inclination
53.1591°
Eccentricity
0.0001102
Mean motion
15.34405473 rev/d
Perigee alt
461.9 km
Apogee alt
463.4 km
Semi-major
6,840.8 km
B*
6.1429e-4
RAAN
20.7429°
Arg perigee
64.0808°
Mean anomaly
296.0308°
Rev number
3,377

§ Raw data

STARLINK-367381 67865U 26034R   26262.82652519  .00020439  00000+0  61429-3 0  99952 67865  53.1591  20.7429 0001102  64.0808 296.0308 15.34405473 33776

JSON: /api/v1/satellites/67865 · /tle

For live sub-satellite position, see the globe view (requires WebGL).

§ Visibility from observer

Set your observer location to see the next 7 days of passes ≥ 10°. The values pass through the URL so the page stays shareable.

No JS? Fill the form by hand. The geolocation button needs JavaScript.